| time (UTC) | temp F | wind direction | speed knots | gust knots | rain 1hr in | rain 24hr in | rain mn in | humidity % | barometer mb |
| 20260507213041 | 57 | 0.0 | 0.9 | 0.00 | 0.01 | 0.00 | 77 | 1001.3 | |
| 20260507210041 | 59 | 0.0 | 1.7 | 0.00 | 0.01 | 0.01 | 76 | 1001.4 | |
| 20260507203101 | 61 | 315 | 1.7 | 4.3 | 0.00 | 0.01 | 0.01 | 73 | 1001.5 |
| 20260507200041 | 59 | 293 | 1.7 | 5.2 | 0.00 | 0.01 | 0.01 | 76 | 1001.6 |
| 20260507193045 | 61 | 315 | 1.7 | 4.3 | 0.00 | 0.01 | 0.01 | 72 | 1001.3 |
| 20260507190040 | 61 | 315 | 0.9 | 4.3 | 0.00 | 0.01 | 0.01 | 73 | 1001.1 |
| 20260507183041 | 62 | 338 | 1.7 | 5.2 | 0.00 | 0.01 | 0.01 | 73 | 1001.1 |
| 20260507180412 | 62 | 270 | 0.9 | 4.3 | 0.00 | 0.01 | 0.01 | 74 | 1001.2 |
| 20260507173040 | 62 | 270 | 0.9 | 3.5 | 0.00 | 0.01 | 0.01 | 74 | 1001.1 |
| 20260507170040 | 63 | 270 | 1.7 | 5.2 | 0.00 | 0.01 | 0.01 | 74 | 1000.9 |
| 20260507163041 | 64 | 270 | 2.6 | 7.8 | 0.00 | 0.01 | 0.01 | 73 | 1000.6 |
| 20260507160041 | 67 | 248 | 5.2 | 11.3 | 0.00 | 0.01 | 0.01 | 67 | 1000.4 |
| 20260507153101 | 66 | 270 | 2.6 | 8.7 | 0.00 | 0.01 | 0.01 | 70 | 1000.5 |
| 20260507150040 | 70 | 248 | 2.6 | 7.0 | 0.00 | 0.01 | 0.01 | 59 | 1001.3 |
| 20260507143041 | 74 | 135 | 4.3 | 13.9 | 0.00 | 0.01 | 0.01 | 46 | 1000.6 |
| 20260507140042 | 77 | 135 | 7.0 | 13.0 | 0.00 | 0.01 | 0.01 | 37 | 999.4 |
| 20260507133042 | 80 | 315 | 3.5 | 9.6 | 0.00 | 0.01 | 0.01 | 38 | 999.4 |
| 20260507130413 | 85 | 315 | 6.1 | 13.0 | 0.00 | 0.01 | 0.01 | 26 | 999.2 |
| 20260507123413 | 84 | 315 | 6.1 | 11.3 | 0.00 | 0.01 | 0.01 | 31 | 999.2 |
| 20260507120432 | 84 | 315 | 7.0 | 13.0 | 0.00 | 0.01 | 0.01 | 28 | 999.3 |
| 20260507113042 | 84 | 315 | 6.1 | 10.4 | 0.00 | 0.01 | 0.01 | 31 | 999.4 |
| 20260507110042 | 85 | 315 | 5.2 | 8.7 | 0.00 | 0.01 | 0.01 | 31 | 999.6 |
| 20260507103042 | 83 | 315 | 4.3 | 8.7 | 0.00 | 0.01 | 0.01 | 32 | 1000.0 |
| 20260507100042 | 82 | 315 | 4.3 | 8.7 | 0.00 | 0.01 | 0.01 | 36 | 1000.5 |
| 20260507093041 | 80 | 315 | 4.3 | 8.7 | 0.00 | 0.01 | 0.01 | 41 | 1000.7 |
| 20260507090041 | 76 | 315 | 4.3 | 7.0 | 0.00 | 0.01 | 0.01 | 47 | 1001.0 |
| 20260507080413 | 71 | 315 | 4.3 | 7.8 | 0.00 | 0.01 | 0.01 | 57 | 1001.4 |
| 20260507073414 | 71 | 315 | 4.3 | 7.0 | 0.00 | 0.01 | 0.01 | 57 | 1001.3 |
| 20260507070041 | 70 | 225 | 3.5 | 7.0 | 0.00 | 0.01 | 0.01 | 62 | 1001.1 |
| 20260507063041 | 67 | 293 | 2.6 | 9.6 | 0.01 | 0.01 | 0.01 | 65 | 1001.2 |
| 20260507060041 | 62 | 248 | 5.2 | 15.6 | 0.01 | 0.01 | 0.01 | 69 | 1001.0 |
| 20260507053041 | 63 | 248 | 5.2 | 8.7 | 0.00 | 0.00 | 0.00 | 62 | 1001.5 |
| 20260507050042 | 64 | 203 | 4.3 | 8.7 | 0.00 | 0.00 | 0.00 | 61 | 1001.6 |
| 20260507043041 | 62 | 203 | 3.5 | 7.8 | 0.00 | 0.00 | 0.00 | 61 | 1001.3 |
| 20260507040041 | 58 | 90 | 3.5 | 9.6 | 0.00 | 0.00 | 0.00 | 69 | 1001.8 |
| 20260507033040 | 56 | 270 | 1.7 | 11.3 | 0.00 | 0.00 | 0.00 | 74 | 1001.1 |
| 20260507030041 | 53 | 270 | 0.9 | 3.5 | 0.00 | 0.00 | 0.00 | 79 | 1000.3 |
| 20260507023041 | 52 | 315 | 2.6 | 6.1 | 0.00 | 0.00 | 0.00 | 77 | 1000.3 |
| 20260507020046 | 51 | 315 | 5.2 | 7.8 | 0.00 | 0.00 | 0.00 | 78 | 999.9 |
| 20260507013041 | 51 | 315 | 5.2 | 7.8 | 0.00 | 0.00 | 0.00 | 77 | 999.8 |
| 20260507010040 | 51 | 315 | 5.2 | 7.8 | 0.00 | 0.00 | 0.00 | 77 | 999.8 |
| 20260507003101 | 52 | 293 | 4.3 | 7.0 | 0.00 | 0.00 | 0.00 | 76 | 999.8 |
| 20260507000101 | 52 | 293 | 3.5 | 5.2 | 0.00 | 0.00 | 0.00 | 76 | 999.7 |
| 20260506233041 | 52 | 293 | 2.6 | 4.3 | 0.00 | 0.00 | 0.00 | 75 | 999.6 |
| 20260506223041 | 55 | 270 | 0.9 | 3.5 | 0.00 | 0.00 | 0.00 | 71 | 999.7 |
| 20260506220040 | 54 | 270 | 0.9 | 3.5 | 0.00 | 0.00 | 0.00 | 75 | 999.7 |